Date,TemperatureHighF,TemperatureAvgF,TemperatureLowF,DewpointHighF,DewpointAvgF,DewpointLowF,HumidityHigh,HumidityAvg,HumidityLow,PressureMaxIn,PressureMinIn,WindSpeedMaxMPH,WindSpeedAvgMPH,GustSpeedMaxMPH,PrecipitationSumIn
2013-4-1,51.5,39.8,31.0,46.0,32.8,16.0,98,78,40,29.89,29.58,17,5,26,0.05
2013-4-2,36.8,30.9,26.1,24.0,18.6,14.0,88,61,43,30.02,29.87,18,6,30,0.00
2013-4-3,39.2,32.7,27.2,22.0,17.6,14.0,75,55,38,30.29,30.02,20,8,32,0.00
2013-4-4,55.6,40.7,27.8,25.0,21.3,18.0,74,49,27,30.36,29.97,14,4,20,0.00
2013-4-5,53.1,43.0,29.4,28.0,25.5,20.0,78,52,28,29.99,29.78,19,6,28,0.00
2013-4-6,48.5,36.2,27.2,27.0,14.6,8.0,73,44,22,30.30,30.00,15,5,20,0.00
2013-4-7,58.6,45.8,26.6,42.0,28.8,15.0,77,54,31,30.25,29.88,23,9,36,0.00
2013-4-8,63.7,49.3,40.1,40.0,37.0,34.0,87,65,38,30.14,29.94,9,2,17,0.00
2013-4-9,65.2,57.2,50.3,50.0,45.8,40.0,82,67,49,30.02,29.83,17,5,24,0.04
2013-4-10,58.1,51.0,45.9,52.0,48.4,45.0,97,91,77,29.99,29.84,10,1,14,0.41
2013-4-11,45.7,40.3,31.8,45.0,32.6,23.0,97,76,46,30.15,29.88,11,4,15,0.09
2013-4-12,39.2,35.3,31.2,37.0,34.0,28.0,98,95,86,30.13,29.79,10,2,13,0.17
2013-4-13,51.2,42.9,36.7,45.0,39.5,36.0,98,88,72,29.93,29.82,5,1,13,0.01
2013-4-14,46.8,40.8,29.5,38.0,31.7,27.0,94,72,48,30.24,29.93,15,3,24,0.00
2013-4-15,59.9,44.2,27.3,38.0,32.1,26.0,96,67,40,30.37,30.23,13,3,19,0.00
2013-4-16,62.0,53.1,44.4,55.0,44.6,32.0,95,73,58,30.31,30.02,20,8,24,0.14
2013-4-17,64.3,52.7,43.6,49.0,37.8,34.0,91,60,33,30.32,30.14,12,4,20,0.02
2013-4-18,63.2,51.0,33.6,49.0,38.1,31.0,92,64,41,30.34,30.01,24,7,33,0.00
2013-4-19,70.9,60.4,43.7,63.0,56.5,43.0,96,87,75,30.00,29.52,17,7,29,0.91
2013-4-20,52.5,44.4,35.3,43.0,34.0,23.0,97,70,40,30.33,29.73,20,5,23,0.17
2013-4-21,54.3,39.3,30.1,29.0,23.2,20.0,85,55,29,30.66,30.34,13,3,24,0.00
2013-4-22,60.3,46.0,28.7,32.0,26.4,21.0,89,51,24,30.71,30.48,9,2,16,0.00
2013-4-23,54.3,42.6,29.6,41.0,34.2,27.0,90,72,59,30.53,30.14,4,1,7,0.00
2013-4-24,72.7,53.7,31.7,52.0,43.1,31.0,98,71,44,30.13,29.70,12,4,18,0.00
2013-4-25,60.5,48.8,35.6,52.0,34.1,28.0,86,60,31,30.26,29.75,16,4,22,0.07
2013-4-26,59.7,46.7,32.0,38.0,32.8,29.0,90,62,38,30.44,30.26,8,3,20,0.00
2013-4-27,67.0,50.3,30.5,38.0,33.3,28.0,92,57,28,30.45,30.27,4,0,9,0.00
2013-4-28,76.1,56.8,36.1,43.0,37.3,33.0,90,54,25,30.31,30.10,9,2,19,0.00
2013-4-29,59.1,54.7,50.7,49.0,43.1,32.0,93,67,41,30.22,30.16,15,4,17,0.00
2013-4-30,72.7,59.6,48.4,49.0,42.8,33.0,93,58,29,30.29,30.20,9,3,16,0.02